Location: Recife
(8.0585°S, 34.8848°W)
Time: 21:13:18
(UTC-03:00)

A-11 Canister half - Pass Details

Date: 23 April 2026
Orbit: 1515 x 1684 km, 47.2° (Epoch: 16 May)

Event Time Altitude Azimuth Distance (km) Brightness Sun altitude
Rises 11:36:39 0° 327° (NNW) 4,836 11.9 68.8°
Reaches altitude 10° 11:39:46 10° 330° (NNW) 3,872 11.6 68.6°
Maximum altitude 11:49:39 68° 51° (NE) 1,777 10.8 67.8°
Drops below altitude 10° 11:59:44 10° 132° (SE) 3,951 11.1 66.8°
Sets 12:02:56 0° 134° (SE) 4,939 11.4 66.4°
